Wind_Speed
13 13 13 13 13 13 12 12 12 12 11 11 11 10 9 9 9 9 9 9 9 9 9 9 9 9 9 10 10 10 9 8 8 7 7 7 6 6 5 6 6 6 7 8 7 6 5 5 4 3 3 3 3 3 4 4 6 9 11 12 12 13 13 13 13 13 12 12 11 10 10 10 10 9 9 9 9 9 8 7 6 5 4 4 3
13 12 12 12 12 12 11 11 11 11 10 10 10 9 9 9 9 9 9 10 10 9 9 8 8 8 8 8 9 9 9 9 8 8 7 6 6 6 5 5 4 5 5 5 5 4 5 4 4 4 5 5 5 4 3 2 2 5 7 9 11 13 14 14 15 15 15 15 15 14 12 11 11 11 11 10 10 10 9 8 7 7 6 5 4
12 12 12 12 11 11 11 11 11 10 10 10 9 9 8 9 9 9 9 10 10 10 9 8 7 7 7 7 7 8 9 9 9 9 8 7 7 6 5 4 4 4 3 3 4 4 4 4 3 3 4 4 4 3 2 1 1 2 3 5 7 9 11 12 13 14 15 16 17 17 16 15 13 12 12 12 11 11 10 10 9 8 7 6 6
11 12 12 12 11 10 10 11 11 11 10 10 9 9 9 9 9 9 9 9 9 9 9 8 7 7 7 7 7 7 8 8 9 9 9 9 8 7 6 5 4 3 3 3 4 5 5 4 4 4 4 3 4 4 2 2 2 2 2 3 5 6 8 10 11 12 13 14 15 17 18 18 17 15 14 13 13 12 12 11 11 10 9 8 7
11 11 12 11 10 10 10 11 11 11 11 11 10 9 9 9 10 10 10 9 9 9 9 9 8 7 7 7 7 7 7 8 8 9 9 9 9 8 7 7 6 5 4 3 4 5 6 5 5 5 5 4 5 5 4 3 3 4 3 3 5 5 6 8 9 10 11 12 13 15 17 19 19 18 16 15 14 14 13 13 12 12 11 10 9
10 11 11 10 9 9 10 10 10 10 11 11 11 10 10 10 10 10 10 10 9 9 8 9 9 8 8 7 6 6 7 8 8 8 8 8 8 8 8 8 8 7 5 5 4 5 6 6 5 5 5 3 4 5 5 3 2 3 3 4 5 5 5 6 7 8 9 10 11 12 14 17 19 19 18 17 17 16 15 14 14 13 13 12 11
10 10 10 9 9 9 10 10 10 11 12 12 12 11 11 11 10 10 9 10 10 9 9 8 8 7 8 8 6 6 6 7 8 8 8 7 8 8 8 9 8 8 6 6 6 6 7 6 4 5 5 4 4 5 4 3 2 2 3 4 5 5 4 4 5 6 7 9 10 10 12 15 18 20 20 19 19 18 18 16 15 15 14 14 13
9 9 9 9 9 9 10 10 11 11 11 12 11 11 11 10 10 9 8 9 9 9 9 9 8 7 7 8 7 6 5 6 7 7 7 7 7 7 8 9 8 8 7 7 6 7 8 8 5 4 5 5 5 5 5 4 3 3 3 5 5 6 5 3 4 5 6 8 9 10 11 12 14 16 19 21 22 21 19 18 17 16 16 15 14
7 8 8 8 9 10 10 11 11 10 10 10 10 10 10 9 9 9 8 8 7 8 8 8 8 7 6 7 7 6 5 6 7 7 7 7 7 6 7 8 8 8 8 8 7 7 8 9 8 7 6 5 6 6 6 5 5 5 5 6 6 6 6 5 5 5 6 7 8 9 10 11 11 12 16 19 21 21 21 20 19 18 17 16 16
6 7 8 8 8 9 10 10 10 10 10 10 9 9 9 9 8 8 8 8 8 7 7 8 8 7 6 5 7 7 6 6 6 6 6 6 7 7 7 7 8 8 8 8 8 8 8 9 10 10 8 7 7 8 8 7 7 7 7 8 7 6 7 7 7 7 6 7 7 8 9 9 9 10 13 15 15 17 19 21 21 20 19 18 18
5 6 6 7 7 8 8 8 8 9 9 10 10 10 10 9 8 8 9 9 10 9 8 8 8 8 7 6 6 6 6 8 7 5 6 7 7 7 7 7 7 7 8 8 8 8 8 9 9 10 10 9 9 9 9 9 9 10 10 10 8 7 8 8 9 9 8 8 9 9 9 9 9 10 12 12 12 13 15 19 22 22 20 20 20
4 5 5 7 7 7 7 7 7 8 9 11 12 12 12 11 10 10 10 10 11 11 11 10 9 9 9 8 7 6 7 8 7 6 7 7 7 7 7 7 7 7 8 8 8 8 8 9 9 10 10 10 11 11 11 10 10 11 12 13 12 10 10 9 10 10 9 9 10 10 10 10 10 10 10 11 12 13 13 15 18 21 22 21 20
3 4 5 6 7 6 6 7 8 9 11 12 13 14 15 14 13 13 12 12 12 12 12 12 11 10 10 9 8 8 8 9 8 7 8 8 8 8 8 7 7 8 8 8 8 8 8 9 9 10 11 11 11 12 12 12 12 12 12 14 15 14 12 11 11 11 11 11 11 11 12 12 13 12 11 10 11 13 13 13 14 17 21 22 22
2 4 5 6 7 7 7 9 10 11 13 14 15 16 16 16 16 15 14 14 14 14 14 14 14 13 11 10 10 9 9 10 9 8 9 9 9 9 9 8 8 8 9 9 9 9 9 9 10 10 10 11 12 12 13 14 13 13 13 13 14 15 15 14 14 14 14 14 13 13 13 14 14 13 12 11 12 13 13 12 12 13 16 20 23
1 4 6 7 7 8 9 10 12 13 14 16 16 16 16 17 17 16 16 16 15 16 16 15 14 14 13 12 11 10 10 10 10 10 10 10 10 10 10 10 9 9 9 10 10 9 10 10 11 11 11 12 12 12 13 14 14 14 15 14 14 14 15 15 16 16 17 16 15 15 15 16 15 15 13 12 13 14 13 12 12 12 13 16 20
3 5 7 8 9 9 10 12 13 13 14 15 15 15 16 16 16 17 16 16 16 16 16 15 15 14 13 12 12 11 11 11 11 11 12 11 12 12 12 12 11 11 11 11 10 10 11 11 11 12 12 12 13 13 13 14 14 15 16 16 16 15 14 14 16 17 18 18 17 17 17 17 17 16 15 14 14 15 15 13 12 12 13 13 15
5 7 8 9 10 10 11 12 12 12 13 13 14 15 16 16 16 16 15 15 15 15 16 16 16 16 14 12 11 11 11 10 11 11 12 13 14 14 15 14 13 14 14 12 12 12 12 12 12 12 12 13 14 14 14 14 15 16 17 18 18 18 16 15 15 16 18 20 20 19 19 18 18 17 17 16 16 16 16 15 14 14 13 13 12
7 9 10 10 10 11 11 11 11 11 11 13 15 17 18 18 16 14 14 14 14 15 16 17 17 17 16 14 12 11 10 10 10 11 11 12 14 15 16 16 16 16 15 14 14 14 14 14 15 15 14 14 15 15 15 15 16 17 18 19 19 19 20 19 18 17 17 19 20 21 21 21 20 19 19 18 18 17 18 17 17 16 15 14 13
9 10 10 11 11 11 11 10 10 10 11 14 16 17 18 18 16 12 11 12 13 15 17 19 19 17 16 15 13 11 10 10 10 10 11 11 13 14 15 16 17 17 17 16 16 16 16 17 18 18 17 17 17 18 17 17 17 17 18 19 20 20 21 21 21 20 19 19 19 20 21 22 22 22 21 20 19 19 19 18 18 17 17 16 15
11 11 11 11 11 11 10 9 9 10 13 15 16 15 15 15 13 8 7 10 13 15 16 17 16 15 13 13 12 11 10 9 9 10 11 11 12 13 14 15 16 17 17 17 17 17 18 18 20 20 20 20 20 20 20 19 18 18 18 19 20 20 21 22 22 22 22 21 20 20 21 22 23 23 23 23 22 21 20 19 19 18 18 17 16
12 11 12 12 11 10 9 9 9 11 14 15 15 14 13 12 8 5 5 8 10 12 13 14 14 12 11 11 11 10 10 10 10 10 11 11 12 12 13 15 16 16 17 17 18 19 19 20 20 21 22 22 22 22 23 23 21 20 19 20 20 21 21 22 23 23 23 22 22 21 21 21 22 23 23 24 24 23 22 21 20 20 19 18 17
12 12 12 12 11 9 8 8 9 12 14 15 14 14 12 10 6 4 5 6 8 9 11 12 12 12 12 11 11 10 10 10 10 10 11 12 12 13 13 14 15 16 16 17 18 18 19 20 21 22 23 23 24 24 25 25 24 23 22 21 21 22 22 23 23 24 24 23 23 23 23 22 22 23 24 24 25 25 24 24 23 21 20 19 17
13 13 13 12 11 9 7 7 9 11 12 13 13 12 10 8 5 4 4 5 6 8 9 10 11 11 12 12 12 12 11 11 10 10 10 11 12 13 13 14 15 16 16 17 17 18 19 21 23 24 25 26 27 27 26 26 25 25 24 23 22 22 23 23 24 24 24 24 24 24 24 24 24 24 24 25 25 25 25 25 24 23 22 21 19
14 14 14 12 10 8 7 7 9 10 10 10 10 10 8 5 4 3 3 5 7 8 9 11 11 12 12 12 12 12 12 12 11 11 11 11 11 12 13 13 14 16 17 17 18 19 21 23 25 27 28 30 30 29 28 27 26 25 25 24 24 23 23 24 24 25 25 25 25 24 25 25 25 25 25 25 26 26 26 25 25 24 23 22 21
15 15 15 12 10 8 6 7 8 9 9 9 9 8 7 4 3 3 4 6 8 9 11 12 13 14 14 14 14 14 14 13 13 12 11 11 11 11 12 12 13 15 16 18 19 20 22 24 26 28 29 30 30 29 28 27 26 26 25 25 25 25 25 25 25 25 25 26 26 25 25 25 26 26 26 27 27 27 27 26 26 25 24 23 22
16 16 15 11 9 8 7 7 8 8 9 9 9 9 7 5 5 5 7 8 10 11 12 13 15 16 16 16 16 16 16 16 16 14 13 11 10 10 10 11 12 13 15 16 18 20 21 23 24 25 26 27 27 27 26 26 27 27 26 25 25 25 25 26 26 25 26 26 27 27 26 26 26 27 28 28 28 28 28 27 27 26 25 24 23
17 17 15 11 9 8 8 8 9 9 10 11 11 11 9 8 7 7 9 10 12 13 13 14 15 16 17 18 17 18 18 18 18 18 17 15 12 11 9 9 10 11 12 14 16 18 19 20 20 21 22 23 24 24 24 25 26 26 26 26 25 25 25 26 27 27 27 27 27 28 28 28 27 28 28 29 29 30 30 29 28 27 26 25 24
18 17 15 12 10 9 9 10 10 10 11 12 12 12 11 10 10 10 11 13 14 15 16 16 17 18 19 19 19 19 19 20 20 20 20 19 17 15 13 11 10 10 11 12 13 14 16 16 16 17 18 19 20 22 22 24 25 26 26 27 27 26 26 26 27 27 28 29 29 29 29 30 29 29 29 29 30 31 31 30 30 29 28 26 26
18 17 15 12 11 10 11 11 11 12 12 13 13 13 13 13 13 13 14 15 16 17 18 19 19 20 21 22 22 22 22 22 22 22 22 21 20 19 17 15 14 13 13 13 14 14 15 16 16 16 16 17 18 20 21 22 24 25 27 28 28 28 28 28 28 27 28 29 30 31 31 31 31 30 30 30 30 31 31 31 31 30 30 29 28
19 17 15 14 12 12 12 13 12 13 13 13 14 14 14 14 14 14 14 15 16 18 19 20 20 21 22 24 24 25 25 24 24 24 23 23 22 21 21 19 18 17 17 17 17 17 18 18 18 18 18 18 19 19 20 22 23 25 26 27 28 28 28 29 29 29 30 30 32 33 34 33 32 31 31 30 31 31 32 32 32 31 31 30 29
19 17 16 15 14 14 14 13 13 13 13 13 13 13 14 14 14 14 14 15 17 18 19 20 20 21 22 23 25 26 26 25 25 24 23 23 22 22 22 22 21 20 20 20 19 19 20 20 20 20 20 19 18 19 20 21 22 24 25 26 27 28 28 28 29 29 30 31 32 33 34 34 34 34 33 32 32 32 32 33 33 33 33 33 32
19 18 18 17 16 16 15 14 14 13 13 13 13 14 14 15 15 15 15 16 17 18 19 20 20 21 22 24 25 26 27 27 27 25 24 23 21 21 22 22 23 22 22 22 21 20 21 21 21 21 20 20 19 18 18 19 20 21 23 24 26 27 28 29 28 28 28 29 30 31 32 32 33 34 34 35 35 35 35 35 36 36 37 37 37
20 19 19 19 18 17 16 15 14 14 14 14 14 15 15 16 16 15 15 16 18 19 20 20 21 21 23 24 25 26 27 28 28 28 26 25 22 21 21 22 23 23 23 23 22 22 21 21 22 21 21 21 21 20 19 18 18 18 20 22 23 25 27 27 28 28 28 28 28 29 30 31 32 33 34 35 37 38 39 40 41 41 42 42 42
20 20 21 21 20 18 17 16 16 15 15 16 16 15 15 16 16 15 15 17 19 21 22 22 22 23 25 26 26 28 28 28 28 28 27 26 24 21 21 22 23 23 23 23 23 23 23 23 23 23 23 23 23 23 21 20 20 19 18 19 21 23 24 26 27 28 30 30 30 30 31 31 32 34 35 36 38 39 41 43 45 46 48 49 49
22 22 22 22 20 19 18 17 17 17 17 17 17 15 15 16 16 16 17 18 20 22 22 23 24 25 26 27 28 29 29 29 28 28 26 26 26 24 23 23 24 24 24 24 23 24 24 25 25 25 25 25 26 26 24 23 23 22 20 19 20 21 22 24 26 28 30 32 33 34 34 34 35 35 36 37 39 40 41 42 43 44 45 47 49
23 23 23 23 21 20 19 18 18 17 17 18 17 16 16 16 16 16 17 18 20 21 22 23 24 26 27 27 27 28 30 30 29 28 27 26 26 25 23 23 24 24 24 25 25 26 26 27 27 28 27 27 27 27 27 26 25 24 23 21 21 21 22 24 26 28 30 32 33 34 35 36 36 36 37 38 38 39 40 40 40 40 39 40 41
24 24 24 23 21 20 19 18 17 16 16 17 17 17 15 15 16 17 17 18 20 22 23 23 23 25 27 27 26 26 28 29 29 28 26 26 25 24 23 23 23 24 24 25 26 27 27 27 28 29 29 29 29 30 30 30 28 27 27 26 26 25 26 27 29 30 31 33 34 35 36 37 38 39 40 41 41 42 41 41 41 40 39 39 39
25 25 24 23 22 21 20 18 16 15 16 17 16 15 14 14 16 18 19 20 21 22 23 24 24 26 27 27 26 25 26 27 28 27 25 24 24 24 23 23 23 25 26 27 27 28 27 27 28 29 30 31 32 33 33 33 32 31 31 31 32 32 33 32 32 34 35 35 36 37 38 39 40 40 41 43 44 45 46 45 45 44 44 42 42
26 26 25 24 23 21 19 17 16 16 16 16 15 14 13 15 19 22 23 24 24 24 24 25 25 26 27 27 26 25 26 26 27 26 24 23 24 24 25 24 25 26 27 28 28 28 28 28 28 30 31 32 34 35 36 36 36 35 35 35 35 37 38 38 38 38 39 40 40 40 39 39 38 39 40 41 42 44 46 48 48 48 47 47 46
27 26 25 24 23 21 18 17 17 16 15 14 15 16 17 19 23 25 26 27 28 28 27 27 27 26 26 27 27 26 26 26 27 27 25 23 24 25 26 26 27 28 28 29 29 29 29 29 30 31 32 34 36 37 38 39 39 40 40 39 39 39 41 41 42 42 43 44 44 44 42 40 39 38 38 38 39 41 43 45 46 47 47 47 47
27 27 26 24 22 20 18 18 17 15 14 14 16 18 20 22 26 28 28 28 29 28 30 32 30 27 25 26 28 28 27 27 28 28 27 25 25 26 27 27 28 28 29 29 30 31 31 31 32 34 35 36 38 39 40 41 42 42 42 43 43 43 44 44 44 44 46 47 47 46 45 44 42 41 40 39 38 39 41 42 43 44 45 45 45
28 28 27 24 21 20 19 18 17 15 15 15 16 18 19 23 27 29 29 28 27 29 32 33 29 25 24 25 27 28 27 28 29 29 28 27 26 26 27 27 28 29 30 31 32 33 33 33 34 36 37 38 40 41 42 43 44 44 45 45 46 46 47 48 47 46 46 48 49 47 45 44 44 43 41 40 39 39 40 40 41 42 43 44 46
29 29 28 24 22 22 21 19 18 17 16 15 15 16 19 23 28 32 32 30 29 31 33 29 25 25 26 27 28 28 28 29 30 29 27 26 26 25 26 27 29 30 32 34 34 35 36 36 36 38 40 41 42 43 44 45 46 47 47 48 49 50 50 51 49 46 44 46 48 47 44 43 44 43 41 40 39 38 39 40 41 41 41 43 44
30 30 29 26 25 24 23 22 20 19 17 16 15 16 20 24 29 34 36 32 30 31 30 26 24 25 28 30 30 29 28 29 27 26 25 25 25 25 27 29 31 33 35 36 37 37 38 38 39 40 42 44 45 45 46 47 48 49 50 50 51 51 51 51 49 45 43 44 46 45 43 42 43 43 42 41 40 40 40 41 42 42 42 42 43
32 32 30 29 27 25 24 23 21 20 17 15 15 17 21 24 29 36 38 34 31 31 29 26 25 25 29 32 31 28 27 26 24 23 24 24 25 27 29 31 34 36 37 38 38 38 39 40 41 43 44 46 46 47 48 49 49 50 50 50 50 49 49 48 46 45 44 44 44 44 43 43 44 44 43 43 43 43 43 43 44 43 43 43 43
34 34 32 30 28 27 26 25 24 21 18 16 16 18 21 25 30 35 38 35 33 32 29 27 26 27 30 33 30 27 26 24 23 24 25 26 27 30 32 35 37 38 39 39 40 40 40 42 44 45 46 47 47 48 49 50 51 51 50 49 47 47 47 46 45 45 46 47 47 46 45 45 45 45 44 44 44 44 44 44 44 43 42 42 41
36 35 33 31 29 28 28 27 26 23 20 17 17 19 22 26 31 35 36 36 34 33 32 30 29 29 31 32 30 27 26 24 25 26 27 29 31 33 36 38 39 39 40 41 41 42 43 44 46 46 48 48 48 49 50 51 51 50 49 48 48 48 48 48 48 48 49 49 50 49 47 46 45 44 44 43 42 41 41 41 42 42 41 40 39
39 38 36 32 30 30 29 28 27 24 21 19 19 21 24 28 33 35 35 35 34 34 35 34 32 32 34 33 31 28 27 27 28 29 30 32 34 36 38 39 40 40 41 42 43 44 45 46 47 48 48 49 49 50 51 51 49 48 48 48 48 49 49 50 49 49 48 48 48 48 46 44 44 43 42 42 40 39 38 39 39 40 40 39 38
40 40 38 33 31 31 31 30 29 26 23 22 22 24 27 31 35 36 35 34 33 34 35 33 33 35 35 34 32 30 30 31 32 32 33 35 37 39 39 40 41 41 42 43 44 45 46 47 47 48 49 49 50 50 50 48 47 47 47 48 48 49 49 48 47 45 44 44 45 45 44 43 43 43 42 41 39 38 38 38 38 39 39 39 39
42 41 39 35 34 35 34 33 30 28 26 25 25 27 30 33 37 38 36 33 33 35 35 33 33 35 35 34 33 33 33 33 33 34 35 36 38 40 40 41 41 42 44 44 44 45 47 48 48 49 49 50 50 49 47 46 46 47 47 47 47 47 46 45 44 43 42 43 45 45 44 44 44 43 41 39 38 38 39 38 38 39 39 40 40
42 42 41 40 39 39 38 36 33 30 29 29 29 31 33 35 38 40 40 37 35 36 35 32 33 35 36 36 36 35 35 34 34 35 36 37 39 40 40 41 41 43 44 44 44 46 48 48 48 49 49 49 48 47 46 46 46 45 45 45 45 44 44 44 44 43 43 45 47 46 45 44 43 43 41 39 38 38 38 38 38 38 38 39 38
Wind_Direction
97 94 92 90 88 87 85 84 83 81 77 74 72 67 60 53 47 44 38 32 33 37 34 30 26 25 23 17 15 17 17 10 1 5 14 11 9 19 26 31 33 34 42 47 46 50 61 64 62 55 33 6 345 333 325 299 268 258 258 260 263 265 266 267 267 267 268 269 269 269 268 266 264 262 261 261 260 258 257 255 254 259 268 276 285
93 91 89 88 86 84 80 77 75 73 69 65 63 57 49 44 37 32 30 24 21 23 24 23 17 16 20 15 12 12 12 11 1 359 6 4 359 4 13 21 25 27 30 38 31 25 43 52 46 38 33 22 10 3 356 335 276 262 262 265 267 268 268 268 267 267 267 267 267 267 266 264 263 262 261 260 260 259 258 257 255 255 258 264 267
90 89 88 87 84 80 76 72 67 63 60 57 55 50 42 37 31 27 25 20 14 10 10 14 7 4 10 11 10 9 7 9 4 358 357 356 355 351 356 4 9 19 12 8 4 353 3 20 23 28 35 26 5 350 328 296 295 290 278 276 272 271 270 268 267 266 265 265 265 265 265 265 263 262 261 261 260 260 258 257 256 255 256 260 263
87 86 86 84 80 74 69 65 60 56 51 47 44 38 30 26 22 21 20 17 10 3 0 2 1 358 1 4 7 6 4 7 5 1 357 353 352 343 339 342 346 357 358 354 347 335 335 345 353 3 18 2 322 304 300 318 327 308 293 290 283 280 279 276 274 270 267 266 264 262 260 261 262 262 261 261 260 260 259 257 255 255 255 255 258
85 83 81 79 75 68 61 57 52 46 40 36 33 26 17 13 12 11 10 8 5 0 354 352 355 352 349 354 3 1 358 2 1 2 3 357 352 345 332 328 331 336 344 348 337 321 321 334 344 353 11 359 316 314 334 343 316 298 301 305 296 293 293 291 289 284 277 271 268 263 257 254 256 258 259 259 258 257 257 257 257 255 254 254 255
84 80 77 73 67 59 53 48 38 30 25 22 20 14 6 2 4 3 358 355 354 355 353 349 351 348 337 339 353 356 350 352 353 357 6 1 354 347 334 327 326 328 334 336 330 319 318 332 347 348 357 357 318 321 341 350 318 305 309 307 299 300 306 309 311 307 295 281 275 270 261 253 250 252 254 257 258 256 254 254 255 256 255 255 255
79 77 73 68 58 47 38 32 24 17 12 11 9 5 0 358 357 355 349 345 343 347 350 348 351 347 331 326 337 349 343 340 340 349 2 1 354 349 341 334 328 324 324 324 324 318 315 323 341 336 333 336 322 318 324 330 334 319 310 303 299 301 307 320 328 323 308 291 283 277 270 261 255 252 252 253 254 254 253 251 252 255 257 257 256
77 75 70 59 44 32 24 18 15 11 7 5 3 1 -0 358 355 353 347 342 339 341 343 342 345 343 330 324 325 332 334 327 328 338 351 356 354 351 346 339 333 328 321 316 315 312 310 312 317 315 317 323 319 314 314 313 313 302 294 290 289 294 300 315 329 319 309 302 293 283 278 274 269 263 258 253 250 250 251 251 249 251 254 256 256
82 74 63 49 32 20 12 9 6 5 4 2 1 0 359 357 356 354 347 343 341 339 337 333 335 334 328 326 319 317 318 311 316 325 333 343 347 348 345 340 338 335 329 319 310 305 304 308 309 308 315 320 315 313 313 314 310 300 292 288 289 299 305 308 305 301 307 312 303 291 284 281 279 273 266 260 255 251 248 248 247 247 249 252 254
84 67 52 40 26 11 2 360 359 359 359 357 356 354 351 352 350 346 341 339 338 336 331 324 323 324 321 318 309 306 302 293 300 313 316 325 332 335 340 339 341 342 336 328 316 307 302 303 306 308 313 312 307 308 310 314 314 309 302 296 301 309 308 307 300 292 294 299 297 292 286 285 281 275 272 272 268 261 252 248 247 246 248 250 252
80 56 39 28 16 5 358 354 352 351 349 346 346 345 343 344 342 338 334 332 332 331 327 321 319 317 311 302 295 295 287 279 287 299 300 306 310 317 329 333 337 341 339 333 325 316 307 303 303 304 306 304 303 306 308 312 313 309 305 305 310 312 310 310 304 296 291 286 285 284 283 282 278 273 274 278 278 275 264 254 249 246 246 248 250
73 45 25 13 3 358 352 345 340 338 337 337 338 336 335 337 337 335 332 330 329 325 322 322 322 318 309 299 288 282 276 274 279 283 287 290 292 301 314 320 324 331 335 334 331 325 316 310 305 303 303 302 303 303 304 306 306 304 304 306 308 307 307 304 298 299 299 292 285 281 282 279 275 272 274 276 274 273 270 263 255 248 245 247 249
60 27 6 356 348 344 339 332 329 329 331 331 331 329 328 330 330 329 328 326 324 321 321 325 324 319 309 300 288 276 271 272 274 273 276 281 285 291 299 305 310 317 323 328 329 329 324 317 311 307 304 302 300 298 297 297 297 297 299 303 304 304 304 299 299 303 301 296 288 281 278 276 275 273 272 272 270 269 268 268 264 254 248 246 246
46 1 344 337 332 329 326 323 324 326 328 327 326 326 325 325 323 321 321 322 324 327 329 329 325 319 310 299 289 279 273 272 271 266 265 269 275 282 288 292 296 303 310 315 318 321 322 320 315 311 307 304 302 299 297 295 294 293 293 297 301 304 306 305 304 302 296 292 287 280 277 276 275 274 272 270 265 264 266 266 265 260 252 247 245
351 328 320 319 320 320 320 321 324 325 326 325 324 323 322 321 320 319 320 323 329 333 335 335 330 324 315 305 294 287 281 278 276 269 263 261 264 269 274 278 282 288 292 297 303 308 311 315 314 312 310 308 306 303 300 297 295 293 291 291 292 297 303 305 304 299 296 293 287 282 278 275 273 270 267 265 261 262 265 266 266 261 255 250 247
285 299 306 312 315 317 319 320 322 324 325 324 322 320 320 319 319 319 321 325 331 334 335 333 328 324 320 313 302 293 285 280 278 276 272 268 265 265 266 269 273 276 278 283 292 298 303 305 306 307 307 307 306 303 301 300 298 295 292 289 287 287 291 296 299 301 300 298 293 288 281 276 274 270 268 266 264 265 266 265 265 262 257 254 252
282 294 303 310 313 315 317 317 319 323 326 325 323 320 318 317 317 318 321 325 328 328 327 323 318 316 315 313 306 295 286 279 276 276 277 275 272 271 271 272 272 273 277 283 287 290 292 294 294 297 300 301 300 301 301 301 299 297 293 290 289 288 287 288 293 297 299 299 298 294 289 283 278 273 271 267 264 265 265 264 262 262 261 258 257
283 294 305 311 312 313 314 314 318 324 326 326 324 320 316 315 315 318 322 322 319 319 319 316 313 311 310 310 308 299 289 282 278 275 275 275 275 275 276 278 278 279 283 287 287 286 287 288 289 291 294 294 296 298 299 300 299 297 294 292 290 289 288 288 289 291 292 294 296 295 294 290 285 278 272 266 262 260 260 261 260 259 260 259 257
284 297 309 311 309 311 311 312 319 325 326 326 326 323 319 316 315 319 321 313 311 315 316 313 309 306 305 308 310 307 300 292 285 280 276 274 274 275 276 277 280 283 286 287 287 287 288 289 289 291 292 292 293 294 295 295 295 294 292 291 289 287 286 285 287 289 289 289 289 290 292 291 289 285 280 273 266 260 257 257 258 258 259 259 257
289 302 309 307 306 308 309 312 322 326 327 330 333 332 327 323 317 310 307 309 316 322 324 323 321 317 312 313 317 319 318 314 304 295 289 283 280 279 279 280 282 284 286 287 289 289 289 289 289 291 291 291 292 292 291 290 288 287 287 286 285 284 282 281 282 284 286 287 285 284 285 286 286 285 283 280 275 269 263 258 256 255 256 257 257
292 302 305 303 303 305 307 316 326 329 331 336 340 341 338 334 324 304 310 327 334 339 345 348 350 350 345 338 336 334 331 328 321 310 301 295 289 285 283 283 283 284 285 286 287 288 288 289 291 292 292 293 293 292 290 287 284 281 279 279 280 279 279 278 278 279 282 284 284 281 279 280 281 281 280 279 278 275 269 263 258 254 252 253 254
292 298 300 300 300 299 305 318 326 330 334 339 341 341 342 342 338 340 356 358 352 353 358 1 4 6 4 359 356 353 348 342 332 320 310 302 295 288 283 281 281 282 283 285 287 289 292 294 295 295 296 297 296 293 289 285 281 278 275 275 276 278 278 278 277 278 279 281 282 281 278 276 276 277 277 276 275 273 271 268 262 256 252 249 248
290 293 295 296 294 292 302 316 324 329 334 337 337 337 340 342 352 12 18 2 350 351 355 358 2 4 4 4 2 1 359 356 349 338 324 311 301 294 286 281 280 282 284 286 289 292 296 297 297 297 297 297 296 294 289 284 280 277 274 273 273 274 276 277 278 278 278 279 279 279 278 276 275 274 274 273 272 271 269 268 265 261 255 249 244
287 289 290 290 285 286 297 309 318 325 329 331 333 335 337 346 8 19 355 339 340 345 348 351 353 354 355 355 355 354 354 354 354 349 341 331 319 308 299 290 285 284 287 290 291 292 292 293 293 293 293 294 294 292 289 285 280 277 273 271 270 270 270 272 275 277 278 278 278 277 276 275 274 272 271 270 270 269 268 266 264 262 258 252 246
283 284 285 283 278 280 287 297 308 316 320 323 327 329 333 343 356 348 334 336 341 345 348 349 348 348 348 347 346 345 344 344 347 346 342 338 330 323 315 305 297 292 290 291 291 291 290 291 291 291 291 292 292 290 287 283 279 276 273 270 269 269 270 271 272 273 275 276 276 275 274 273 272 272 270 268 267 267 266 264 262 261 258 254 249
279 280 280 275 270 272 275 284 296 302 307 314 319 321 324 330 338 341 341 342 344 347 349 350 349 348 348 348 347 344 341 339 339 339 337 332 326 321 316 312 306 301 298 297 296 296 295 294 294 293 294 293 292 290 285 281 277 276 275 274 272 271 270 271 272 273 273 274 274 275 275 274 272 270 269 267 265 263 263 262 260 258 256 253 249
275 276 274 266 260 261 267 276 285 290 296 306 310 311 314 320 330 335 336 335 336 337 341 344 346 345 345 347 348 348 345 340 337 335 334 332 326 319 312 308 305 303 301 301 300 300 298 296 295 295 295 295 294 291 285 279 276 275 275 275 274 273 272 272 273 274 274 274 274 275 276 276 275 271 269 267 265 262 260 258 257 255 253 250 247
272 272 267 256 248 250 260 269 275 282 290 297 300 301 303 309 315 319 322 324 324 326 329 332 335 336 337 338 340 343 343 341 338 335 333 331 328 324 319 313 308 305 303 302 302 301 301 301 301 301 301 300 298 295 289 282 276 273 272 273 274 275 275 275 274 275 276 278 278 277 276 275 275 274 271 269 267 265 261 258 256 253 251 248 246
267 266 258 245 240 244 254 261 268 276 285 290 292 294 297 301 307 311 315 318 320 323 326 328 331 331 330 330 331 332 334 335 335 334 332 331 329 326 323 320 316 315 315 316 316 315 315 316 317 317 316 312 309 304 297 289 281 275 274 274 276 277 279 280 280 279 278 277 278 277 276 274 274 273 272 271 270 268 265 262 258 254 251 248 246
262 259 247 238 240 246 250 254 262 272 281 286 289 292 297 302 308 312 316 319 322 326 328 330 332 332 330 328 327 327 327 328 327 327 327 327 327 325 322 319 318 320 323 326 328 327 325 326 327 329 329 325 319 313 305 297 288 282 278 277 278 278 280 281 282 283 282 279 277 275 274 274 274 274 273 272 271 270 268 264 260 256 253 250 248
256 248 236 234 241 245 246 250 258 268 277 283 288 292 298 303 307 311 317 321 326 329 331 334 336 337 336 333 330 328 326 324 323 321 320 318 319 319 318 317 317 319 322 324 328 329 328 328 330 331 332 330 324 317 309 302 295 289 284 281 279 278 277 278 279 280 282 282 280 276 273 271 271 273 273 273 272 271 269 267 263 260 256 254 252
246 236 230 234 241 241 241 245 253 262 269 275 282 290 296 300 304 309 315 322 327 331 333 336 339 339 340 339 336 332 327 324 322 321 318 315 313 314 314 315 315 316 319 321 325 328 329 330 330 331 330 327 324 320 314 306 299 292 287 283 280 277 276 274 275 276 278 280 280 278 276 273 271 270 271 271 271 270 268 266 264 261 259 257 255
236 227 227 233 238 237 237 242 249 255 262 269 277 286 292 300 306 311 317 325 332 335 336 337 336 335 337 338 338 337 332 327 324 322 322 319 314 312 312 312 312 314 316 319 321 324 326 327 327 328 327 324 321 320 317 311 303 295 288 283 281 278 276 275 275 276 278 279 278 277 275 274 273 272 271 270 269 269 268 266 264 262 260 258 257
226 222 226 230 232 232 233 240 247 253 261 269 276 283 292 303 309 314 321 330 336 337 337 337 334 331 331 331 334 337 335 331 326 325 326 323 317 315 313 312 313 314 316 318 320 319 320 321 321 323 323 321 318 317 315 312 307 301 293 286 282 279 278 277 277 278 279 279 278 277 276 275 274 274 274 273 272 271 270 269 267 265 263 261 260
221 220 224 226 227 229 231 238 245 253 263 270 275 283 294 304 310 318 326 333 335 335 334 335 334 332 329 326 329 333 333 331 329 328 329 327 320 317 317 316 316 315 315 317 318 318 317 317 319 320 319 317 315 313 311 308 306 303 297 290 285 281 278 277 275 275 276 277 278 279 278 277 276 275 275 274 275 274 273 271 270 268 266 265 263
219 220 221 222 223 226 231 238 245 253 261 269 276 286 296 304 312 323 332 334 333 330 329 330 331 332 329 325 325 329 331 330 328 329 331 329 323 320 320 319 318 316 316 317 318 318 317 317 317 318 316 313 310 308 306 305 304 301 295 289 283 279 275 273 272 271 273 274 276 277 278 278 278 278 277 276 275 275 275 274 272 271 270 269 268
219 221 219 219 222 226 232 238 243 251 261 269 279 289 298 306 315 323 329 329 327 325 325 325 324 326 327 325 323 326 328 328 326 328 332 331 327 324 324 323 320 318 317 317 317 317 316 315 314 313 312 310 307 305 305 306 304 301 295 290 286 281 277 274 273 272 273 273 274 275 276 276 277 278 278 278 277 276 275 274 272 271 271 271 270
219 219 217 218 221 226 231 236 242 251 261 271 281 290 299 309 316 320 321 321 319 319 320 319 316 319 322 323 323 324 325 325 323 325 328 329 326 325 325 323 320 317 316 315 315 313 312 311 310 309 308 307 305 304 303 303 301 298 294 291 289 287 284 283 281 280 278 277 276 276 275 275 274 273 273 274 274 275 274 272 271 270 270 271 271
219 218 218 218 220 225 229 235 243 252 261 271 281 288 296 305 313 317 316 314 315 318 320 318 315 316 320 322 323 323 322 320 318 319 322 323 322 322 321 320 317 315 314 313 312 310 309 308 306 304 303 303 302 301 300 299 297 295 294 292 291 290 288 288 288 289 288 286 285 283 282 279 276 273 270 269 269 270 271 270 270 270 270 271 271
218 219 219 219 220 224 229 236 243 250 259 271 281 288 294 302 310 314 311 311 316 319 318 315 313 314 317 318 319 320 318 314 313 314 317 320 320 318 317 316 313 312 311 311 311 309 308 307 303 301 300 299 298 297 297 297 296 295 294 292 291 290 290 290 290 291 291 290 289 288 287 284 280 275 272 269 267 266 266 267 267 268 269 269 269
219 221 220 218 220 225 231 237 242 249 259 271 282 290 298 304 309 311 310 311 316 316 311 309 310 311 310 311 315 317 315 312 312 314 316 318 318 316 315 313 311 310 310 311 310 309 307 304 301 299 297 296 295 295 295 295 294 294 293 291 290 290 290 291 292 292 290 288 288 288 287 286 283 279 276 273 270 267 266 265 265 265 266 266 266
222 222 218 217 220 226 230 235 242 252 262 275 286 295 302 305 307 309 309 308 310 312 311 310 311 313 311 310 314 317 315 314 314 314 315 316 316 314 311 310 308 309 310 309 308 307 305 301 298 296 294 294 294 294 294 294 294 293 292 292 293 293 293 293 294 293 291 289 288 287 287 285 284 282 281 278 275 272 270 267 265 264 264 264 265
224 221 217 217 222 229 233 237 245 254 263 275 289 299 304 305 307 307 304 304 306 310 311 310 311 314 313 314 317 317 315 315 314 313 313 313 313 311 308 308 308 308 309 308 306 305 303 299 296 295 294 294 295 295 295 295 296 296 296 296 297 297 297 296 295 294 292 290 288 287 287 287 286 285 284 282 279 276 274 273 271 269 267 265 264
226 223 219 222 228 234 240 244 248 255 263 274 289 299 302 305 306 302 298 301 305 306 307 309 311 312 315 318 320 318 315 315 313 311 312 312 312 310 308 308 308 307 307 307 305 303 301 299 297 296 295 295 296 297 297 297 298 298 298 298 298 297 297 296 295 294 292 290 288 287 288 289 288 287 287 285 283 281 279 277 275 273 270 267 265
228 226 224 228 234 240 244 248 252 258 265 276 288 296 300 301 301 299 297 300 303 304 307 311 313 314 319 322 322 318 316 315 312 311 313 313 312 310 309 308 307 307 306 305 303 302 300 299 298 296 295 296 298 299 299 299 299 298 298 298 298 297 296 296 296 295 294 292 290 290 290 289 288 288 287 285 283 282 280 277 275 273 271 269 267
234 230 230 234 238 243 247 251 255 260 267 275 283 289 294 295 295 297 300 301 301 303 307 310 310 315 322 325 323 319 317 315 314 314 315 315 312 310 309 308 307 306 304 303 302 301 300 299 298 297 298 299 301 301 300 299 298 298 298 299 299 299 298 299 298 297 295 294 293 292 291 290 290 289 288 285 284 282 280 277 275 273 271 269 267
241 236 235 237 241 245 250 255 259 263 267 273 280 284 288 291 291 294 299 302 302 303 305 305 308 315 324 327 325 321 319 318 318 318 318 315 312 309 308 306 305 304 303 302 302 302 301 300 300 300 301 302 302 301 299 298 298 299 300 301 301 301 301 300 299 298 297 295 294 293 293 293 293 292 290 289 287 284 280 277 275 273 271 268 266
245 241 240 241 243 247 252 256 260 264 268 272 278 282 285 288 289 292 299 305 304 303 303 306 311 320 327 329 326 323 322 322 322 321 317 314 311 308 306 304 303 302 302 302 302 303 303 302 302 303 303 302 301 300 299 299 301 302 303 302 302 302 301 300 299 298 298 297 296 296 296 296 295 294 292 291 289 286 281 277 275 272 271 269 267
248 247 245 245 247 249 253 257 259 263 267 270 275 279 281 284 287 290 296 300 300 300 303 307 314 321 325 326 325 324 323 324 323 319 315 312 310 307 304 303 302 302 302 303 304 304 303 303 303 303 302 302 301 301 301 303 304 305 305 304 303 303 302 302 301 300 300 299 298 298 298 297 296 294 293 291 289 285 281 277 275 273 271 270 269
249 249 246 245 248 250 253 256 259 261 265 268 271 273 275 280 286 288 290 292 294 299 304 308 314 319 321 321 321 321 322 322 319 315 312 309 307 304 303 302 303 304 304 304 304 304 304 303 303 302 302 302 303 303 305 306 306 306 305 305 305 305 305 304 303 302 301 299 298 298 297 296 294 293 291 289 286 283 280 277 276 274 273 272 271
249 247 245 245 249 253 255 256 257 260 263 264 267 268 270 276 283 286 287 288 290 297 303 307 312 315 317 317 318 318 318 317 314 310 309 307 303 303 303 303 304 305 305 304 303 303 303 302 302 303 303 304 305 307 307 307 307 306 306 306 306 307 306 306 304 303 301 299 297 296 295 293 292 290 289 286 283 281 279 277 276 275 274 273 272
Height
5922 5922 5922 5923 5923 5923 5923 5923 5923 5922 5922 5922 5921 5921 5921 5920 5920 5919 5918 5918 5917 5917 5916 5916 5916 5915 5914 5914 5914 5913 5913 5912 5911 5911 5910 5909 5908 5907 5906 5906 5905 5905 5906 5906 5905 5904 5904 5905 5905 5906 5906 5907 5907 5907 5907 5907 5907 5907 5907 5907 5907 5907 5907 5907 5907 5907 5907 5907 5908 5908 5908 5908 5908 5908 5908 5908 5908 5908 5908 5908 5908 5908 5907 5907 5906
5923 5923 5924 5924 5924 5924 5924 5924 5923 5923 5923 5923 5922 5922 5922 5921 5921 5920 5919 5918 5918 5917 5917 5916 5916 5916 5915 5914 5914 5913 5913 5912 5912 5911 5910 5910 5909 5908 5907 5906 5905 5905 5905 5906 5905 5903 5904 5905 5906 5906 5906 5907 5907 5906 5906 5905 5905 5905 5905 5906 5906 5906 5906 5906 5906 5906 5906 5906 5906 5907 5907 5907 5907 5907 5907 5907 5907 5907 5908 5908 5908 5908 5907 5906 5906
5924 5924 5925 5925 5925 5925 5925 5924 5924 5924 5924 5924 5923 5923 5923 5922 5921 5921 5920 5919 5918 5917 5917 5917 5916 5916 5916 5915 5914 5913 5913 5912 5912 5911 5911 5910 5909 5908 5908 5907 5906 5905 5905 5905 5904 5903 5904 5905 5906 5905 5906 5905 5905 5904 5904 5903 5903 5904 5904 5904 5904 5904 5905 5905 5904 5904 5904 5905 5905 5905 5906 5906 5906 5907 5907 5907 5907 5907 5907 5907 5907 5907 5907 5906 5906
5924 5925 5925 5925 5925 5925 5925 5924 5924 5925 5925 5924 5924 5924 5923 5923 5922 5921 5920 5919 5919 5918 5917 5917 5917 5916 5916 5915 5915 5913 5913 5912 5911 5911 5911 5910 5910 5909 5908 5907 5906 5906 5906 5905 5904 5903 5903 5905 5905 5905 5905 5904 5902 5902 5903 5904 5904 5903 5903 5903 5903 5903 5903 5903 5903 5903 5903 5903 5903 5903 5904 5905 5905 5906 5906 5906 5906 5906 5906 5906 5906 5907 5907 5906 5906
5924 5925 5925 5925 5926 5926 5925 5925 5925 5925 5925 5924 5924 5923 5923 5922 5922 5920 5920 5919 5919 5919 5918 5918 5917 5916 5915 5915 5915 5914 5913 5912 5911 5911 5911 5910 5910 5909 5908 5907 5907 5906 5906 5905 5905 5904 5903 5904 5904 5904 5905 5904 5902 5902 5904 5904 5903 5902 5902 5902 5902 5902 5902 5902 5903 5902 5902 5902 5901 5901 5902 5903 5903 5904 5905 5905 5905 5905 5905 5905 5905 5906 5906 5906 5906
5925 5925 5925 5925 5926 5926 5925 5925 5925 5925 5924 5924 5923 5923 5922 5922 5921 5920 5919 5919 5919 5919 5918 5918 5917 5916 5915 5915 5914 5913 5912 5912 5911 5911 5911 5910 5909 5909 5908 5908 5907 5907 5907 5906 5905 5904 5903 5904 5905 5904 5905 5904 5902 5902 5903 5903 5902 5902 5901 5901 5901 5901 5901 5902 5902 5902 5901 5900 5900 5900 5900 5900 5901 5901 5903 5904 5904 5904 5904 5904 5904 5905 5905 5906 5906
5925 5925 5925 5926 5926 5926 5925 5926 5925 5925 5924 5923 5923 5922 5921 5921 5920 5920 5919 5919 5918 5918 5918 5917 5917 5916 5915 5914 5914 5913 5912 5912 5911 5911 5911 5910 5909 5909 5908 5908 5907 5907 5907 5906 5905 5904 5903 5904 5905 5905 5904 5904 5903 5902 5902 5902 5902 5901 5901 5900 5900 5900 5900 5901 5901 5900 5900 5899 5898 5898 5898 5898 5899 5900 5901 5902 5902 5903 5903 5903 5903 5903 5904 5905 5905
5925 5925 5925 5926 5925 5925 5925 5925 5925 5924 5923 5923 5922 5921 5921 5920 5919 5919 5919 5918 5918 5917 5916 5916 5916 5915 5915 5914 5913 5913 5912 5911 5911 5910 5910 5910 5909 5909 5908 5907 5907 5907 5907 5906 5905 5905 5904 5904 5904 5905 5904 5903 5903 5902 5903 5902 5901 5901 5900 5899 5899 5900 5900 5900 5900 5899 5898 5898 5898 5898 5898 5898 5898 5900 5900 5900 5900 5901 5902 5902 5902 5902 5902 5903 5904
5925 5926 5926 5925 5925 5924 5924 5924 5923 5923 5922 5922 5921 5920 5919 5919 5918 5918 5918 5917 5917 5916 5915 5914 5914 5914 5913 5913 5912 5912 5912 5911 5910 5910 5909 5909 5909 5909 5908 5908 5907 5906 5906 5906 5905 5905 5904 5903 5904 5904 5904 5903 5902 5902 5902 5902 5901 5900 5899 5899 5899 5900 5900 5900 5899 5897 5897 5897 5898 5898 5897 5897 5897 5898 5898 5897 5898 5900 5900 5901 5900 5900 5900 5901 5902
5926 5925 5925 5925 5925 5924 5923 5923 5922 5921 5921 5920 5919 5919 5918 5917 5917 5916 5916 5916 5915 5915 5914 5913 5913 5912 5912 5911 5911 5911 5911 5910 5910 5910 5909 5909 5908 5908 5908 5907 5907 5906 5906 5905 5905 5905 5904 5903 5903 5903 5903 5903 5902 5902 5902 5902 5901 5899 5899 5898 5899 5899 5899 5899 5898 5896 5895 5895 5896 5896 5895 5895 5896 5896 5895 5896 5897 5898 5899 5899 5898 5898 5899 5900 5900
5925 5925 5925 5925 5925 5924 5923 5922 5921 5921 5920 5919 5918 5917 5917 5916 5915 5915 5914 5914 5914 5914 5913 5913 5912 5912 5911 5910 5910 5909 5909 5909 5909 5909 5908 5908 5908 5907 5907 5907 5907 5906 5906 5905 5904 5904 5904 5903 5903 5903 5903 5903 5902 5902 5901 5901 5900 5900 5899 5898 5899 5899 5898 5898 5897 5896 5895 5894 5895 5894 5894 5893 5893 5894 5894 5894 5895 5896 5896 5897 5897 5897 5897 5898 5899
5925 5925 5925 5925 5924 5923 5922 5921 5920 5920 5919 5918 5917 5916 5915 5915 5914 5913 5913 5913 5913 5912 5912 5912 5911 5910 5910 5909 5909 5908 5907 5907 5907 5907 5907 5907 5907 5907 5907 5907 5906 5906 5906 5905 5904 5904 5903 5903 5903 5903 5903 5903 5902 5901 5901 5900 5900 5899 5898 5898 5898 5898 5898 5897 5896 5895 5895 5894 5894 5894 5893 5892 5892 5892 5893 5893 5893 5893 5894 5894 5894 5894 5895 5896 5897
5925 5925 5924 5923 5922 5921 5921 5920 5919 5919 5918 5917 5916 5915 5914 5913 5913 5912 5912 5912 5912 5911 5911 5910 5910 5909 5908 5908 5908 5907 5906 5905 5906 5906 5906 5906 5906 5906 5906 5906 5906 5906 5905 5905 5904 5904 5903 5903 5902 5902 5902 5902 5902 5901 5901 5901 5900 5900 5899 5898 5897 5897 5897 5896 5894 5893 5893 5894 5894 5893 5892 5891 5891 5891 5892 5892 5891 5891 5891 5891 5891 5892 5893 5894 5895
5924 5924 5923 5922 5921 5921 5920 5919 5919 5918 5917 5916 5915 5914 5913 5913 5912 5912 5911 5911 5911 5910 5910 5909 5909 5908 5908 5907 5906 5906 5905 5904 5904 5905 5905 5905 5904 5904 5904 5904 5905 5905 5904 5904 5904 5903 5903 5902 5902 5902 5901 5901 5901 5901 5901 5900 5900 5899 5898 5897 5896 5895 5895 5894 5893 5892 5892 5892 5892 5891 5890 5890 5890 5890 5890 5891 5890 5889 5889 5889 5889 5889 5890 5891 5892
5923 5923 5922 5921 5921 5920 5920 5919 5918 5917 5916 5915 5914 5913 5913 5912 5911 5911 5910 5910 5910 5909 5909 5908 5908 5907 5907 5906 5905 5905 5904 5904 5903 5903 5903 5903 5903 5903 5903 5903 5903 5903 5903 5903 5903 5902 5902 5902 5901 5901 5900 5900 5900 5900 5900 5900 5899 5899 5898 5897 5896 5895 5894 5893 5892 5891 5891 5891 5890 5889 5889 5888 5888 5888 5889 5890 5889 5888 5887 5887 5887 5887 5888 5888 5889
5922 5922 5921 5920 5920 5920 5919 5919 5918 5917 5916 5915 5914 5913 5912 5911 5911 5910 5910 5910 5909 5908 5907 5907 5906 5906 5905 5904 5904 5903 5903 5903 5903 5902 5902 5902 5901 5901 5901 5901 5902 5902 5902 5902 5902 5902 5901 5901 5900 5900 5900 5899 5899 5899 5899 5898 5898 5897 5897 5896 5895 5894 5894 5893 5892 5891 5890 5889 5889 5888 5887 5886 5886 5886 5886 5888 5887 5886 5886 5886 5886 5886 5886 5886 5887
5921 5920 5920 5920 5919 5919 5918 5918 5918 5917 5916 5915 5913 5912 5911 5911 5911 5910 5910 5909 5909 5907 5906 5905 5904 5904 5903 5903 5902 5902 5901 5901 5901 5901 5901 5901 5900 5900 5899 5900 5900 5900 5900 5901 5901 5901 5901 5900 5900 5899 5899 5898 5898 5897 5897 5897 5896 5896 5895 5895 5894 5893 5893 5892 5891 5890 5889 5888 5887 5887 5886 5885 5884 5884 5884 5885 5885 5885 5884 5884 5884 5884 5884 5884 5884
5919 5919 5919 5919 5919 5918 5918 5917 5917 5916 5916 5914 5913 5912 5910 5910 5910 5910 5909 5908 5907 5906 5905 5904 5903 5902 5902 5901 5900 5900 5900 5899 5899 5900 5900 5900 5900 5899 5898 5898 5898 5898 5899 5899 5899 5899 5899 5899 5898 5898 5898 5897 5897 5896 5896 5896 5895 5895 5894 5893 5893 5892 5892 5891 5890 5889 5888 5887 5886 5885 5884 5884 5883 5883 5882 5882 5883 5882 5882 5882 5882 5882 5882 5882 5882
5919 5919 5919 5919 5918 5918 5917 5917 5916 5916 5915 5914 5913 5911 5910 5908 5908 5908 5908 5907 5905 5905 5904 5903 5902 5901 5900 5900 5899 5899 5898 5898 5898 5898 5898 5898 5898 5898 5898 5897 5897 5897 5897 5897 5898 5898 5897 5897 5896 5896 5896 5896 5895 5895 5894 5894 5894 5893 5892 5892 5891 5890 5890 5889 5888 5887 5886 5886 5885 5884 5883 5882 5882 5881 5881 5881 5880 5880 5879 5879 5880 5880 5880 5880 5880
5918 5918 5918 5918 5918 5918 5917 5916 5916 5915 5914 5913 5912 5910 5909 5907 5907 5907 5907 5906 5905 5904 5903 5901 5900 5899 5899 5898 5898 5898 5898 5897 5897 5896 5896 5896 5896 5896 5896 5896 5896 5895 5895 5895 5895 5895 5895 5895 5894 5893 5893 5893 5893 5892 5892 5892 5892 5891 5890 5890 5889 5888 5888 5887 5886 5886 5885 5884 5883 5882 5882 5881 5880 5880 5879 5879 5878 5878 5877 5877 5877 5877 5877 5878 5878
5918 5918 5918 5918 5917 5917 5917 5916 5915 5914 5913 5912 5911 5910 5908 5907 5906 5906 5906 5905 5905 5904 5902 5901 5900 5899 5898 5898 5897 5897 5897 5897 5896 5895 5894 5894 5894 5894 5894 5893 5893 5894 5894 5893 5893 5893 5892 5892 5892 5891 5890 5890 5890 5890 5889 5889 5889 5888 5888 5887 5886 5885 5885 5884 5884 5883 5883 5882 5881 5880 5880 5879 5878 5878 5877 5877 5876 5876 5875 5875 5874 5874 5874 5875 5875
5918 5918 5917 5917 5917 5916 5916 5915 5914 5913 5912 5911 5910 5909 5908 5906 5906 5905 5905 5905 5905 5904 5903 5901 5900 5899 5898 5898 5897 5896 5896 5896 5895 5894 5893 5892 5892 5892 5892 5892 5891 5891 5892 5891 5891 5891 5890 5889 5889 5888 5887 5887 5886 5886 5886 5885 5885 5885 5885 5884 5883 5883 5882 5881 5881 5881 5880 5880 5879 5878 5878 5877 5876 5876 5875 5875 5874 5874 5873 5873 5872 5872 5872 5872 5872
5917 5917 5917 5917 5916 5916 5915 5914 5913 5913 5912 5911 5910 5909 5908 5907 5906 5905 5905 5905 5905 5904 5903 5902 5901 5900 5899 5898 5897 5896 5895 5895 5894 5893 5892 5891 5891 5890 5890 5890 5889 5889 5889 5889 5889 5888 5888 5887 5886 5885 5884 5883 5883 5882 5882 5882 5881 5881 5881 5880 5880 5879 5879 5878 5878 5877 5877 5877 5876 5876 5875 5875 5874 5873 5873 5873 5872 5872 5871 5871 5871 5870 5870 5870 5869
5916 5916 5916 5916 5915 5915 5915 5914 5913 5912 5911 5910 5910 5909 5908 5907 5906 5906 5905 5905 5905 5904 5903 5901 5900 5900 5899 5898 5897 5896 5895 5894 5893 5893 5892 5891 5890 5889 5888 5888 5887 5887 5886 5886 5886 5886 5885 5885 5884 5883 5882 5881 5880 5879 5878 5878 5878 5877 5877 5877 5876 5876 5875 5875 5874 5874 5874 5874 5873 5873 5872 5872 5871 5871 5870 5870 5870 5869 5869 5869 5869 5868 5868 5868 5867
5915 5916 5916 5915 5915 5914 5914 5913 5912 5911 5911 5910 5910 5909 5908 5907 5906 5906 5906 5905 5904 5903 5902 5901 5900 5899 5898 5897 5896 5895 5894 5893 5893 5892 5891 5890 5889 5888 5887 5886 5885 5885 5884 5884 5884 5884 5883 5882 5881 5880 5879 5878 5876 5875 5874 5874 5873 5873 5873 5873 5873 5872 5872 5872 5871 5871 5871 5870 5870 5870 5869 5869 5868 5868 5867 5867 5867 5866 5866 5867 5866 5866 5866 5866 5865
5914 5915 5915 5915 5914 5913 5913 5912 5911 5910 5910 5910 5909 5909 5908 5907 5907 5906 5905 5905 5904 5903 5901 5900 5899 5898 5897 5896 5895 5894 5893 5892 5891 5891 5890 5889 5888 5887 5886 5885 5884 5884 5883 5882 5881 5881 5880 5879 5878 5877 5876 5875 5873 5872 5871 5870 5869 5869 5869 5869 5869 5869 5869 5869 5868 5868 5868 5867 5867 5867 5866 5866 5865 5865 5864 5864 5863 5863 5863 5863 5864 5864 5864 5863 5863
5913 5914 5914 5914 5913 5913 5912 5911 5910 5910 5910 5909 5909 5909 5908 5907 5906 5906 5905 5904 5903 5902 5901 5900 5898 5897 5896 5895 5894 5893 5892 5891 5890 5889 5888 5888 5887 5886 5886 5885 5884 5883 5882 5881 5880 5879 5877 5876 5875 5874 5873 5871 5870 5869 5868 5867 5866 5866 5866 5865 5865 5865 5865 5865 5865 5864 5864 5864 5864 5863 5863 5863 5862 5862 5861 5861 5860 5860 5860 5860 5860 5861 5861 5861 5860
5912 5912 5913 5912 5912 5912 5911 5910 5909 5909 5909 5909 5909 5908 5907 5906 5906 5905 5904 5903 5902 5901 5900 5899 5898 5897 5895 5894 5893 5892 5891 5890 5889 5888 5887 5886 5885 5884 5883 5883 5883 5882 5881 5880 5878 5877 5875 5874 5872 5871 5870 5868 5867 5866 5865 5864 5863 5863 5862 5862 5862 5861 5861 5861 5861 5861 5860 5860 5859 5859 5859 5859 5859 5859 5858 5857 5857 5856 5856 5856 5857 5857 5857 5857 5857
5910 5911 5911 5911 5911 5910 5910 5909 5908 5908 5908 5908 5908 5907 5906 5905 5905 5903 5902 5901 5901 5900 5899 5898 5897 5896 5895 5893 5892 5891 5890 5889 5888 5886 5885 5884 5882 5881 5881 5880 5880 5879 5878 5877 5876 5874 5872 5871 5869 5868 5866 5865 5864 5863 5862 5861 5860 5860 5859 5858 5858 5857 5857 5856 5856 5856 5856 5856 5855 5855 5855 5855 5855 5855 5854 5854 5853 5853 5852 5853 5853 5853 5853 5853 5853
5908 5909 5910 5910 5910 5909 5908 5907 5907 5907 5907 5907 5907 5906 5905 5904 5903 5902 5901 5900 5900 5899 5898 5897 5896 5895 5894 5892 5890 5889 5888 5887 5886 5885 5883 5881 5880 5879 5878 5877 5876 5875 5874 5873 5872 5871 5870 5868 5866 5865 5863 5862 5861 5860 5859 5858 5857 5857 5856 5855 5854 5854 5853 5853 5852 5852 5852 5851 5851 5850 5850 5850 5850 5850 5850 5850 5850 5849 5849 5849 5849 5849 5849 5849 5849
5907 5908 5908 5908 5908 5907 5906 5906 5906 5906 5906 5906 5906 5905 5904 5903 5902 5901 5900 5899 5898 5898 5897 5895 5894 5893 5892 5891 5889 5887 5886 5885 5884 5882 5881 5879 5878 5877 5876 5874 5873 5872 5871 5870 5869 5868 5867 5865 5864 5862 5860 5859 5858 5857 5856 5855 5854 5854 5853 5852 5852 5851 5850 5849 5849 5848 5847 5847 5846 5846 5845 5845 5845 5845 5845 5845 5845 5845 5845 5845 5845 5845 5845 5845 5845
5904 5905 5906 5906 5906 5905 5905 5905 5905 5905 5905 5905 5904 5904 5903 5902 5901 5900 5899 5899 5897 5896 5895 5893 5892 5891 5890 5888 5887 5885 5884 5882 5881 5880 5879 5877 5876 5875 5873 5872 5871 5869 5868 5867 5866 5865 5864 5862 5861 5860 5858 5857 5856 5855 5854 5852 5851 5851 5850 5849 5848 5847 5846 5846 5845 5844 5843 5842 5841 5841 5840 5840 5840 5840 5840 5840 5840 5840 5840 5840 5840 5840 5840 5840 5840
5902 5903 5904 5904 5903 5903 5903 5903 5903 5903 5904 5904 5903 5903 5902 5901 5900 5899 5898 5897 5896 5894 5893 5891 5890 5888 5887 5885 5884 5882 5881 5880 5878 5877 5877 5875 5874 5873 5871 5870 5868 5867 5866 5864 5863 5862 5861 5860 5859 5858 5856 5855 5853 5852 5851 5850 5849 5848 5846 5845 5844 5843 5842 5842 5841 5840 5839 5838 5837 5836 5835 5834 5834 5834 5834 5834 5834 5834 5834 5834 5834 5834 5834 5833 5834
5900 5900 5901 5901 5901 5902 5902 5902 5902 5902 5902 5902 5902 5901 5901 5900 5899 5898 5897 5896 5894 5892 5891 5889 5888 5886 5884 5883 5881 5879 5878 5877 5876 5874 5874 5873 5872 5870 5869 5868 5867 5865 5864 5862 5861 5860 5859 5858 5857 5855 5854 5852 5851 5849 5848 5847 5845 5844 5843 5841 5840 5839 5838 5837 5836 5835 5834 5832 5832 5831 5830 5830 5829 5828 5828 5828 5828 5828 5828 5827 5827 5827 5827 5826 5826
5897 5898 5898 5899 5899 5900 5900 5900 5900 5900 5900 5900 5900 5900 5899 5898 5897 5897 5896 5894 5892 5890 5889 5887 5886 5884 5882 5880 5879 5877 5876 5874 5873 5872 5871 5870 5869 5868 5867 5865 5864 5863 5862 5860 5859 5858 5856 5855 5854 5853 5851 5850 5848 5846 5844 5843 5842 5841 5840 5838 5837 5835 5834 5833 5832 5830 5829 5827 5826 5825 5824 5824 5824 5823 5823 5822 5821 5821 5820 5820 5820 5819 5819 5819 5819
5895 5895 5896 5896 5897 5898 5898 5898 5898 5899 5898 5898 5898 5898 5897 5897 5896 5895 5894 5892 5890 5888 5886 5885 5883 5882 5880 5878 5876 5875 5874 5872 5871 5870 5868 5868 5867 5865 5864 5863 5862 5861 5860 5858 5857 5855 5854 5852 5851 5849 5848 5846 5845 5843 5841 5840 5839 5838 5836 5835 5833 5832 5830 5828 5827 5825 5824 5822 5821 5820 5819 5818 5817 5817 5816 5816 5815 5814 5813 5812 5812 5812 5812 5811 5811
5893 5893 5894 5894 5895 5896 5896 5896 5896 5897 5896 5896 5895 5895 5895 5895 5894 5892 5891 5889 5887 5885 5884 5882 5881 5879 5878 5876 5874 5873 5872 5870 5869 5868 5866 5865 5865 5864 5862 5861 5860 5859 5857 5856 5855 5853 5851 5849 5848 5846 5844 5842 5841 5839 5837 5836 5834 5833 5831 5830 5829 5827 5826 5824 5822 5821 5819 5818 5816 5815 5814 5813 5812 5811 5809 5808 5807 5807 5806 5806 5805 5804 5804 5804 5804
5891 5891 5892 5892 5893 5893 5894 5894 5894 5894 5894 5893 5893 5893 5893 5892 5890 5889 5888 5886 5884 5883 5882 5880 5879 5877 5876 5874 5873 5871 5870 5869 5867 5866 5865 5864 5863 5862 5861 5859 5858 5856 5855 5853 5852 5850 5848 5846 5844 5842 5840 5838 5836 5833 5832 5831 5829 5828 5827 5825 5823 5821 5819 5818 5817 5815 5813 5812 5811 5810 5808 5807 5806 5805 5804 5802 5800 5799 5798 5798 5798 5797 5797 5797 5797
5889 5889 5890 5890 5891 5891 5891 5892 5892 5892 5891 5891 5891 5891 5890 5889 5887 5885 5884 5882 5881 5881 5880 5878 5876 5875 5874 5872 5871 5869 5868 5867 5865 5864 5863 5862 5861 5860 5858 5857 5856 5854 5852 5850 5848 5847 5845 5843 5841 5838 5836 5833 5831 5828 5826 5825 5824 5822 5821 5819 5818 5815 5812 5811 5810 5808 5806 5804 5803 5802 5801 5800 5799 5798 5797 5796 5794 5793 5791 5790 5790 5790 5789 5789 5789
5887 5887 5888 5888 5888 5889 5890 5890 5890 5890 5889 5889 5889 5888 5887 5885 5883 5882 5880 5879 5879 5878 5877 5875 5874 5873 5872 5870 5868 5867 5866 5864 5863 5862 5861 5860 5859 5857 5856 5855 5853 5851 5849 5847 5845 5843 5841 5839 5837 5834 5832 5829 5826 5823 5821 5819 5817 5815 5814 5812 5811 5809 5806 5804 5803 5801 5798 5796 5795 5793 5792 5791 5791 5790 5789 5788 5787 5786 5785 5784 5783 5782 5782 5782 5782
5885 5885 5885 5886 5886 5887 5888 5888 5888 5887 5887 5887 5886 5885 5884 5882 5879 5878 5877 5876 5876 5875 5873 5872 5872 5870 5869 5868 5866 5864 5863 5862 5860 5859 5859 5858 5856 5855 5853 5852 5850 5848 5846 5843 5841 5839 5837 5835 5832 5829 5827 5824 5821 5818 5815 5813 5811 5809 5807 5804 5803 5801 5799 5798 5796 5794 5792 5790 5788 5786 5785 5783 5782 5781 5781 5780 5780 5779 5778 5777 5776 5775 5774 5774 5774
5883 5883 5883 5884 5885 5886 5886 5886 5885 5885 5884 5884 5883 5882 5881 5879 5876 5874 5873 5873 5873 5872 5870 5869 5869 5868 5867 5865 5863 5861 5860 5858 5857 5856 5855 5854 5853 5851 5850 5848 5846 5844 5842 5839 5837 5834 5832 5830 5827 5824 5822 5819 5816 5813 5811 5808 5806 5804 5801 5799 5797 5796 5794 5792 5791 5788 5785 5783 5781 5779 5778 5775 5774 5774 5773 5773 5772 5771 5770 5769 5768 5768 5767 5767 5766
5880 5881 5882 5883 5884 5884 5884 5884 5883 5882 5882 5881 5880 5879 5878 5876 5873 5870 5869 5870 5870 5869 5867 5866 5865 5864 5864 5862 5860 5858 5856 5855 5854 5853 5852 5850 5849 5848 5846 5844 5842 5840 5838 5835 5832 5830 5827 5825 5823 5820 5817 5814 5812 5809 5806 5804 5801 5799 5797 5794 5792 5790 5788 5786 5784 5782 5779 5776 5773 5772 5771 5768 5766 5766 5766 5765 5765 5764 5763 5762 5761 5760 5760 5759 5759
5878 5879 5880 5881 5881 5881 5881 5881 5880 5880 5879 5878 5877 5876 5874 5873 5870 5865 5863 5866 5868 5866 5864 5863 5862 5861 5860 5858 5856 5854 5852 5851 5850 5849 5848 5846 5845 5843 5841 5840 5838 5835 5833 5831 5828 5825 5822 5820 5818 5815 5812 5809 5807 5805 5802 5800 5797 5794 5791 5789 5786 5784 5781 5779 5777 5775 5772 5769 5767 5765 5765 5762 5760 5759 5759 5758 5757 5756 5755 5754 5753 5752 5752 5751 5751
5875 5876 5877 5878 5878 5878 5878 5878 5877 5877 5876 5875 5875 5873 5872 5870 5867 5861 5859 5862 5864 5862 5860 5860 5858 5857 5856 5854 5852 5850 5848 5847 5846 5844 5843 5842 5840 5839 5837 5835 5833 5831 5829 5826 5824 5821 5818 5815 5813 5810 5807 5805 5803 5800 5797 5795 5792 5788 5785 5783 5780 5777 5774 5772 5770 5767 5764 5761 5760 5759 5758 5756 5753 5752 5752 5750 5749 5748 5747 5745 5744 5743 5743 5743 5743
5871 5872 5874 5875 5875 5875 5875 5874 5874 5874 5874 5873 5872 5871 5869 5868 5864 5859 5856 5858 5859 5858 5857 5857 5855 5853 5852 5850 5848 5846 5844 5842 5841 5840 5839 5837 5836 5835 5833 5831 5829 5827 5825 5822 5819 5817 5814 5811 5808 5805 5802 5800 5798 5795 5792 5788 5785 5782 5779 5777 5773 5770 5767 5765 5763 5760 5756 5754 5752 5752 5751 5748 5746 5745 5744 5742 5741 5740 5738 5736 5735 5735 5735 5735 5735
5868 5869 5870 5871 5872 5872 5871 5871 5870 5871 5871 5871 5870 5868 5866 5864 5861 5857 5855 5856 5857 5855 5853 5852 5850 5849 5847 5845 5843 5841 5839 5838 5837 5836 5835 5833 5832 5831 5829 5827 5825 5823 5820 5817 5815 5812 5809 5806 5803 5800 5798 5795 5793 5790 5786 5782 5779 5776 5773 5770 5767 5764 5761 5759 5756 5753 5749 5746 5745 5744 5743 5741 5739 5737 5736 5734 5733 5732 5730 5728 5727 5726 5726 5727 5727
5864 5865 5866 5867 5868 5868 5868 5867 5867 5867 5868 5868 5867 5865 5863 5861 5857 5855 5855 5855 5854 5852 5848 5847 5845 5843 5841 5840 5838 5837 5836 5834 5833 5832 5831 5829 5828 5827 5825 5823 5821 5819 5816 5813 5811 5807 5804 5801 5798 5796 5793 5790 5787 5783 5779 5776 5773 5770 5767 5764 5761 5758 5755 5753 5750 5747 5743 5740 5737 5736 5736 5734 5732 5730 5729 5727 5726 5725 5723 5721 5720 5719 5719 5719 5720
5860 5861 5862 5864 5865 5864 5864 5864 5864 5864 5865 5865 5864 5862 5859 5856 5853 5852 5852 5852 5851 5848 5846 5844 5842 5839 5836 5836 5835 5833 5832 5831 5829 5828 5827 5826 5824 5822 5821 5819 5817 5815 5812 5809 5806 5802 5799 5796 5793 5790 5787 5784 5780 5777 5774 5771 5768 5764 5761 5758 5755 5752 5749 5746 5744 5741 5737 5734 5731 5730 5729 5728 5725 5724 5723 5721 5720 5718 5716 5714 5714 5713 5713 5713 5713
5857 5858 5859 5860 5860 5860 5860 5860 5860 5861 5861 5861 5859 5857 5855 5853 5850 5847 5847 5848 5849 5846 5843 5840 5838 5836 5834 5833 5832 5831 5829 5828 5826 5825 5823 5822 5820 5818 5817 5815 5812 5810 5807 5804 5800 5797 5794 5791 5788 5784 5781 5778 5775 5772 5769 5765 5762 5759 5755 5752 5749 5746 5743 5740 5738 5735 5733 5729 5726 5724 5724 5722 5719 5717 5716 5716 5714 5712 5710 5709 5708 5707 5706 5706 5706
5853 5854 5855 5856 5856 5856 5856 5856 5856 5857 5857 5856 5854 5851 5850 5849 5847 5843 5841 5843 5843 5842 5840 5836 5834 5832 5831 5830 5829 5828 5826 5825 5823 5821 5819 5818 5816 5814 5812 5810 5808 5805 5801 5798 5795 5792 5788 5785 5782 5778 5775 5773 5770 5767 5764 5760 5757 5753 5750 5747 5744 5741 5738 5735 5732 5730 5727 5724 5720 5718 5718 5716 5713 5711 5710 5710 5710 5707 5704 5703 5702 5701 5700 5700 5700